TimeCST,TemperatureF,Dew PointF,Humidity,Sea Level PressureIn,VisibilityMPH,Wind Direction,Wind SpeedMPH,Gust SpeedMPH,PrecipitationIn,Events,Conditions,WindDirDegrees,DateUTC
12:54 AM,-0.0,-7.1,72,30.41,10.0,NW,8.1,-,N/A,,Clear,320,2013-02-20 06:54:00
1:54 AM,-0.0,-7.1,72,30.44,10.0,WNW,5.8,-,N/A,,Clear,300,2013-02-20 07:54:00
2:54 AM,-0.0,-7.1,72,30.44,10.0,NW,10.4,-,N/A,,Clear,310,2013-02-20 08:54:00
3:54 AM,-0.0,-7.1,72,30.43,10.0,NNW,10.4,-,N/A,,Clear,330,2013-02-20 09:54:00
4:54 AM,-0.0,-7.1,72,30.44,10.0,NNW,10.4,-,N/A,,Clear,340,2013-02-20 10:54:00
5:54 AM,-0.4,-7.6,72,30.37,10.0,North,9.2,-,N/A,,Clear,350,2013-02-20 11:54:00
6:54 AM,-0.9,-7.1,75,30.44,10.0,North,8.1,-,N/A,,Clear,350,2013-02-20 12:54:00
7:54 AM,1.9,-6.0,69,30.45,10.0,North,11.5,-,N/A,,Clear,10,2013-02-20 13:54:00
8:54 AM,6.1,-2.9,67,30.46,10.0,NNE,8.1,-,N/A,,Clear,20,2013-02-20 14:54:00
9:54 AM,10.0,-0.9,61,30.49,10.0,North,5.8,-,N/A,,Clear,360,2013-02-20 15:54:00
10:54 AM,12.0,-0.0,59,30.47,10.0,Calm,Calm,-,N/A,,Clear,0,2013-02-20 16:54:00
11:54 AM,15.1,1.0,54,30.48,10.0,West,5.8,-,N/A,,Clear,280,2013-02-20 17:54:00
12:54 PM,19.9,1.9,46,30.47,10.0,WNW,4.6,-,N/A,,Clear,300,2013-02-20 18:54:00
1:54 PM,21.0,3.9,48,30.42,10.0,North,10.4,-,N/A,,Clear,350,2013-02-20 19:54:00
2:54 PM,24.1,6.1,46,30.40,10.0,NNE,6.9,-,N/A,,Clear,20,2013-02-20 20:54:00
3:54 PM,23.0,8.1,53,30.39,10.0,NE,8.1,-,N/A,,Clear,40,2013-02-20 21:54:00
4:54 PM,21.9,9.0,58,30.40,10.0,NNE,3.5,-,N/A,,Clear,30,2013-02-20 22:54:00
5:54 PM,18.0,10.0,71,30.39,10.0,NNE,5.8,-,N/A,,Clear,30,2013-02-20 23:54:00
6:54 PM,17.1,10.0,74,30.39,10.0,NNE,6.9,-,N/A,,Clear,30,2013-02-21 00:54:00
7:54 PM,15.1,10.0,80,30.39,10.0,NNE,5.8,-,N/A,,Clear,30,2013-02-21 01:54:00
8:54 PM,15.1,10.0,80,30.40,10.0,NE,6.9,-,N/A,,Clear,50,2013-02-21 02:54:00
9:54 PM,16.0,9.0,74,30.40,10.0,ENE,6.9,-,N/A,,Clear,60,2013-02-21 03:54:00
10:54 PM,16.0,9.0,74,30.40,10.0,ENE,6.9,-,N/A,,Clear,70,2013-02-21 04:54:00
11:54 PM,15.1,9.0,77,30.39,10.0,East,6.9,-,N/A,,Clear,80,2013-02-21 05:54:00